Theta_e
276 276 275 275 275 276 275 275 274 274 274 274 274 275 275 276 276 276 277 277 277 277 277 277 278 278 278 278 278 278 278 278 278 278 278 278 278 278 277 277 278 278
275 275 276 276 275 275 274 274 273 273 273 274 274 274 275 275 276 276 276 276 277 277 277 277 277 278 278 278 278 277 277 277 277 278 277 277 277 278 277 278 278 278
274 274 274 273 273 273 273 273 273 273 273 273 274 274 275 275 275 276 276 276 276 276 276 277 277 277 277 277 277 277 276 276 276 277 277 276 277 277 277 277 277 277
274 273 273 273 272 272 272 272 272 273 273 273 273 274 274 274 275 275 275 275 275 275 275 276 276 276 276 276 277 276 276 276 276 276 276 276 276 276 276 276 276 276
273 272 272 272 272 272 272 271 271 272 272 272 272 273 273 273 273 274 274 274 274 274 274 275 275 275 276 276 276 275 276 276 276 276 275 275 276 276 276 276 276 276
272 272 272 272 271 271 271 271 271 271 271 271 272 272 272 273 272 272 272 272 273 273 273 274 274 274 275 275 275 275 275 275 275 275 275 274 274 275 275 275 275 275
271 271 271 271 271 271 270 270 271 271 271 271 272 271 272 271 271 271 272 272 272 272 273 273 273 273 274 275 274 274 274 274 274 274 274 273 273 273 274 274 274 274
271 271 271 270 270 270 270 270 270 270 271 271 270 271 271 270 270 271 271 272 271 272 272 272 272 273 273 273 273 272 272 273 273 273 273 272 272 272 272 273 273 273
270 270 270 270 269 269 269 270 270 270 270 270 269 270 270 270 270 271 271 271 271 271 271 271 271 271 272 271 271 271 271 271 272 272 271 271 271 271 271 272 272 272
269 269 269 269 269 269 269 269 269 269 269 269 269 269 269 270 270 270 270 270 269 269 269 269 269 270 270 270 269 269 269 269 270 270 270 270 270 270 271 271 271 271
269 269 268 268 268 269 268 269 269 269 269 268 269 269 269 269 269 269 268 268 267 267 267 267 267 268 268 268 268 268 268 268 268 268 269 269 270 270 271 270 270 271
268 268 268 268 268 268 268 268 268 268 268 268 268 267 267 267 267 266 266 266 266 266 266 266 266 266 266 266 267 267 267 267 267 267 268 268 269 269 269 270 270 270
268 267 268 267 268 267 267 267 267 267 266 266 266 265 265 265 265 265 265 265 265 265 265 265 265 265 265 265 266 266 266 266 266 266 267 267 268 268 269 270 270 270
267 267 267 267 267 267 266 266 266 265 265 265 264 264 263 263 263 263 263 264 264 264 264 264 264 264 265 265 265 266 266 266 266 266 267 267 268 268 269 270 270 271
267 267 267 267 266 265 265 264 264 263 263 263 263 262 263 263 263 263 263 263 263 263 264 264 264 264 265 265 265 266 266 267 267 268 268 268 268 269 269 270 270 271
266 266 266 265 265 264 263 263 262 262 261 261 261 262 262 262 262 262 262 262 262 263 263 264 264 265 267 270 271 269 268 269 269 269 269 270 270 270 269 270 271 271
266 265 265 264 263 263 262 261 261 260 260 260 260 261 261 261 262 262 262 263 263 263 263 264 264 265 269 271 273 273 271 269 269 269 270 270 270 270 271 271 272 272
265 264 263 262 262 261 261 260 260 259 259 260 260 260 261 261 261 262 263 263 263 264 263 264 264 268 270 271 272 273 273 270 269 269 270 271 271 271 272 272 272 273
263 262 262 261 261 260 259 259 259 259 259 259 259 260 261 261 262 262 262 263 263 263 263 263 264 268 270 271 272 273 274 273 270 270 270 271 272 272 272 273 273 273
262 261 260 260 260 259 259 259 258 258 259 260 260 260 261 261 261 262 262 262 262 262 263 263 263 267 270 271 272 273 274 273 270 271 271 271 272 272 273 274 274 273
261 260 259 259 259 258 258 258 258 258 259 260 260 260 260 260 261 261 261 261 262 262 262 262 263 268 270 272 272 273 274 274 271 271 271 271 272 273 273 274 275 275
260 259 259 258 258 258 257 258 258 258 258 259 260 260 261 261 261 261 261 261 261 261 261 261 262 269 270 271 273 274 275 271 270 270 270 271 272 273 273 274 275 275
260 259 257 257 257 257 257 257 258 258 258 260 259 260 260 260 260 260 261 261 261 261 261 261 262 266 270 272 273 274 272 269 270 270 270 270 270 271 272 273 274 275
259 258 257 257 256 256 256 257 258 258 259 259 259 259 259 260 260 260 261 261 261 261 261 261 262 266 270 271 272 273 273 270 270 269 269 269 270 271 272 273 274 276
258 257 257 256 256 256 256 256 257 258 258 259 259 259 259 260 260 260 260 261 261 261 264 264 263 265 269 271 272 273 272 270 269 269 268 269 269 270 271 272 273 274
257 256 256 255 256 256 256 257 258 258 258 259 259 259 259 259 260 260 259 260 262 262 263 264 264 264 266 271 273 273 274 270 270 268 268 268 269 269 270 271 272 273
Wind_Speed
5 4 5 5 6 6 6 6 6 7 8 7 8 8 8 9 9 10 11 11 12 13 13 13 13 14 13 14 16 15 15 15 16 14 15 16 16 16 18 18 18 18
5 5 5 5 5 5 5 6 7 7 8 8 8 9 9 10 10 10 11 12 12 13 13 13 14 14 15 15 14 15 15 15 16 14 14 19 17 18 19 21 20 17
5 5 6 6 6 6 7 6 7 7 7 8 9 9 9 9 11 10 11 12 12 13 13 13 14 14 15 15 15 15 16 16 18 15 17 18 17 17 18 18 17 21
5 5 5 5 5 6 6 7 7 7 7 8 8 8 9 9 10 12 12 12 12 13 13 14 14 14 14 16 15 16 16 18 16 17 17 16 17 18 17 17 18 18
4 4 4 4 5 6 6 7 8 7 8 9 9 10 10 10 11 12 12 12 12 13 13 13 13 14 14 15 15 15 16 15 16 16 15 18 16 15 16 14 17 18
4 4 4 5 5 6 6 7 8 8 9 9 10 9 10 11 11 12 13 13 12 13 15 14 14 14 14 14 14 14 14 15 15 15 18 18 18 17 17 15 18 20
4 4 5 5 6 6 8 8 8 8 8 9 10 10 10 12 12 13 13 13 14 13 13 13 14 14 13 13 14 15 16 14 17 17 18 19 17 19 20 18 18 19
4 4 4 5 6 7 8 8 8 8 9 9 11 11 11 12 13 12 11 13 13 14 14 14 15 15 15 14 16 16 15 13 14 17 17 19 20 20 20 16 17 19
4 4 4 6 6 7 8 8 8 9 9 10 11 11 11 11 12 12 13 13 14 14 14 15 15 15 14 15 16 16 17 16 16 17 18 18 19 20 19 17 19 19
4 4 5 5 6 7 8 8 8 9 9 10 11 10 12 11 12 13 13 13 14 14 14 14 15 15 15 15 16 16 17 18 18 18 18 18 19 20 19 17 18 19
4 3 4 6 7 7 8 8 8 9 8 10 10 11 11 11 11 11 13 13 13 14 15 15 15 16 16 16 16 15 17 17 18 18 18 18 19 20 19 19 19 19
3 3 5 6 7 7 7 8 8 8 9 9 9 10 11 10 12 11 11 14 14 14 15 15 15 15 16 17 17 16 16 17 17 17 18 18 18 18 18 18 17 18
3 4 5 6 6 6 6 7 8 9 9 9 9 10 10 11 11 12 12 13 14 15 15 15 16 15 15 16 16 17 17 17 17 17 18 17 17 18 18 18 18 17
3 4 5 5 5 5 6 7 7 7 8 8 9 9 10 11 12 13 13 13 14 14 15 16 17 16 16 15 16 16 16 16 16 17 17 17 18 19 18 18 18 18
3 4 4 4 4 5 6 7 7 7 7 7 7 8 8 10 12 14 15 15 14 15 17 16 15 15 13 13 15 16 16 17 17 17 17 18 19 19 18 19 18 18
3 4 4 3 4 5 6 6 7 7 7 7 7 8 8 10 11 12 13 14 15 16 15 14 13 12 15 24 23 19 19 18 17 17 17 17 17 18 18 18 19 18
3 3 3 4 4 5 5 6 6 6 6 7 7 7 8 9 10 12 13 14 15 15 15 14 13 13 24 26 27 29 22 19 18 18 18 18 18 18 19 18 16 18
3 2 3 4 4 5 5 5 6 5 6 6 7 8 8 8 10 12 13 14 13 14 15 15 15 20 26 27 28 28 26 20 18 17 17 17 17 18 17 17 18 18
2 2 3 4 5 5 5 5 5 5 5 6 7 7 8 9 11 12 12 13 14 16 16 15 16 22 27 29 29 29 29 25 17 17 17 17 18 18 19 17 19 16
1 1 3 4 5 5 5 4 4 5 6 6 7 8 9 10 11 12 13 14 14 15 16 16 17 22 28 29 29 30 29 25 18 17 17 17 18 18 18 18 18 19
1 2 3 5 5 5 4 4 4 5 6 6 7 9 10 10 11 12 11 11 13 14 14 15 14 27 29 30 29 29 29 25 16 15 15 15 17 18 19 18 19 18
1 2 4 5 5 4 4 5 5 6 7 7 7 8 8 9 9 9 11 12 12 13 13 15 15 27 28 28 30 29 30 17 14 15 15 16 16 17 17 17 17 17
1 3 4 5 4 4 5 5 7 7 7 6 8 8 10 9 9 9 10 11 13 12 13 14 13 21 27 30 29 30 23 15 15 14 14 15 16 17 17 17 16 17
1 3 5 5 4 4 5 5 5 5 6 6 8 10 10 9 9 10 10 10 11 13 12 14 13 20 29 29 29 28 25 18 14 14 15 16 16 16 15 16 18 26
1 3 4 4 5 4 3 5 6 6 6 6 6 7 9 9 9 10 10 10 11 12 18 19 13 17 25 27 28 28 23 16 16 14 16 16 15 16 15 16 17 19
3 3 4 4 5 4 3 3 5 5 6 7 7 7 8 9 9 10 13 12 12 11 11 11 13 14 17 26 26 29 30 19 15 15 16 16 15 15 16 16 17 17
Wind_Direction
223 227 237 244 248 253 260 267 273 277 275 277 278 281 278 281 282 280 278 277 273 271 270 269 270 273 275 275 275 275 271 270 269 264 264 263 262 261 263 260 260 262
222 228 243 248 257 258 264 269 275 273 275 274 276 280 280 281 279 278 279 277 274 269 270 270 273 271 273 274 274 273 272 269 268 265 263 265 264 264 265 264 264 263
221 227 233 245 256 269 273 276 273 271 273 274 278 276 280 282 284 281 279 277 277 274 273 273 274 273 274 273 273 271 269 270 269 267 266 264 264 265 266 265 264 263
225 231 244 255 264 273 279 280 276 276 278 283 280 284 285 284 284 283 281 278 277 278 276 278 276 275 275 272 272 270 268 267 267 268 266 264 265 265 263 265 264 262
234 242 249 259 266 272 278 276 279 279 282 283 287 286 286 286 287 286 284 282 281 281 283 282 282 278 276 275 270 270 268 268 267 263 261 264 262 263 265 264 265 263
245 252 263 273 279 285 281 280 283 288 287 287 286 289 287 287 286 286 287 287 286 287 288 287 285 283 279 276 273 269 269 270 267 264 264 262 269 269 266 265 266 266
255 260 272 276 282 283 283 283 285 287 288 287 292 286 289 290 287 288 289 290 293 291 291 291 289 287 283 278 275 274 272 269 272 267 264 266 266 269 269 269 266 264
251 264 271 280 288 289 285 284 285 288 290 293 287 288 289 290 293 293 294 297 295 294 292 290 287 287 283 279 278 276 274 275 270 268 264 267 271 266 266 266 267 264
266 272 281 287 290 287 282 285 290 292 295 292 291 293 296 296 300 299 299 298 296 295 294 293 290 287 284 282 280 280 279 277 272 270 270 270 270 269 268 269 267 265
263 272 280 282 281 278 281 290 295 295 297 293 295 298 302 300 305 304 302 301 299 296 293 290 289 288 286 284 282 280 279 277 275 272 272 271 270 270 271 270 266 267
257 271 275 278 278 280 289 295 297 299 298 300 303 304 304 308 308 308 304 302 298 297 295 292 291 291 287 285 284 280 279 278 277 276 274 274 271 269 269 268 269 270
261 270 272 274 278 284 294 300 301 299 305 306 307 307 310 307 307 305 303 299 296 295 294 293 292 291 288 288 288 283 280 278 278 276 276 274 272 271 271 270 269 267
255 264 274 276 282 294 303 305 303 307 309 309 311 309 309 307 304 302 298 296 294 294 293 294 294 292 290 288 288 283 281 279 277 276 274 272 271 270 268 267 266 267
252 263 270 276 289 304 305 303 306 306 310 309 311 311 310 307 304 300 296 294 295 295 298 301 296 293 288 287 285 283 281 279 277 275 272 269 266 263 262 261 261 261
254 262 267 281 305 309 304 305 306 306 306 305 303 304 305 303 299 297 297 296 294 296 299 298 298 292 290 288 287 284 280 276 275 271 267 266 261 255 252 254 254 253
254 264 273 309 318 307 303 307 306 306 303 302 305 304 301 293 289 291 290 292 294 299 299 298 294 293 290 291 291 290 288 285 281 279 277 273 271 265 254 250 249 248
252 268 307 321 312 301 300 303 305 300 300 303 305 303 293 289 292 293 299 304 303 303 305 302 299 295 297 297 297 296 295 292 289 285 279 277 274 272 272 267 258 254
250 286 323 312 298 295 297 297 291 293 305 310 305 300 296 293 295 301 308 310 306 306 303 301 300 299 300 302 301 299 296 292 289 286 284 281 276 274 269 270 265 269
260 314 316 293 289 290 289 281 289 306 313 310 304 300 300 304 309 309 307 310 307 306 304 302 300 300 304 304 303 301 299 295 290 287 285 283 281 275 269 265 267 264
320 351 297 288 287 286 284 295 314 316 310 300 297 305 310 307 310 311 310 309 306 302 300 300 297 298 302 305 306 304 301 297 291 288 284 281 282 279 278 272 268 263
6 316 292 288 289 287 297 312 317 312 309 310 314 317 316 314 315 313 306 299 296 296 297 295 293 300 305 308 307 306 304 302 296 296 294 292 289 285 281 274 269 265
6 303 290 287 289 298 310 324 327 320 316 313 312 312 307 308 304 299 297 295 291 292 291 291 290 302 307 308 310 311 310 307 304 295 288 285 286 291 290 288 283 276
320 294 285 285 294 310 321 329 328 319 315 315 313 312 313 311 301 297 292 289 290 288 288 289 287 296 307 312 314 315 315 306 297 294 298 300 298 295 292 291 289 285
288 279 276 288 300 305 318 319 310 302 303 313 314 312 310 300 298 291 282 280 284 287 288 290 290 302 310 312 315 314 312 309 308 307 300 297 295 292 291 289 286 287
258 261 267 281 291 292 312 309 311 311 304 307 300 298 295 295 290 291 286 285 281 280 291 297 292 296 304 312 316 318 318 313 309 301 301 298 297 296 293 291 289 288
257 250 255 258 272 293 300 299 302 306 311 312 304 300 296 295 290 287 289 291 293 293 292 288 294 296 301 314 322 324 322 317 310 307 301 298 296 296 294 289 287 287